Location: Helsinki
(60.1699°N, 24.9384°E)
Time: 19:59:25
(UTC+02:00)

Transit 2A Rocket - Pass Details

Date: 22 September 2023
Orbit: 593 x 903 km, 66.7° (Epoch: 28 November)

Event Time Altitude Azimuth Distance (km) Brightness Sun altitude
Rises 19:21:28 0° 256° (WSW) 3,247 10.2 -0.9°
Reaches altitude 10° 19:24:02 10° 262° (W) 2,269 9.4 -1.2°
Maximum altitude 19:29:03 50° 338° (NNW) 895 5.7 -1.8°
Drops below altitude 10° 19:33:38 10° 54° (NE) 2,084 6.8 -2.4°
Sets 19:35:55 0° 60° (ENE) 2,957 7.5 -2.6°
